This is the latest recevied weather packets stored in our database for station/object W8BS. If no packets are shown the sender has not sent any weather packets the latest 10 day(s).
| Time | Temp. | Humidity | Pressure | Rain* | Wind** | Luminosity | Snow |
|---|---|---|---|---|---|---|---|
| 1778122749 | 8.89° C | 99% | 1013 hPa | 1.78 mm | - | 0 W/m² | - |
| 1778122447 | 8.89° C | 99% | 1012.9 hPa | 1.78 mm | - | 0 W/m² | - |
| 1778122145 | 8.89° C | 99% | 1012.3 hPa | 0 mm | - | 0 W/m² | - |
| 1778121842 | 8.89° C | 99% | 1011.8 hPa | 1.27 mm | - | 0 W/m² | - |
| 1778121537 | 8.89° C | 99% | 1012.1 hPa | 3.05 mm | - | 0 W/m² | - |
| 1778121234 | 8.89° C | 99% | 1011.9 hPa | 3.05 mm | - | 0 W/m² | - |
| 1778120932 | 9.44° C | 99% | 1012.5 hPa | 4.83 mm | - | 0 W/m² | - |
| 1778120628 | 9.44° C | 99% | 1012.4 hPa | 4.83 mm | - | 0 W/m² | - |
| 1778120324 | 9.44° C | 99% | 1012.3 hPa | 1.27 mm | - | 0 W/m² | - |
| 1778120019 | 9.44° C | 99% | 1012.4 hPa | 1.78 mm | - | 0 W/m² | - |
| 1778119718 | 9.44° C | 99% | 1012.7 hPa | 1.78 mm | - | 0 W/m² | - |
| 1778119414 | 9.44° C | 99% | 1012.2 hPa | 1.27 mm | - | 0 W/m² | - |
| 1778119111 | 9.44° C | 99% | 1011.6 hPa | 1.27 mm | - | 0 W/m² | - |
| 1778118809 | 9.44° C | 99% | 1011.7 hPa | 0 mm | - | 0 W/m² | - |
| 1778118506 | 9.44° C | 99% | 1011.9 hPa | 0 mm | - | 0 W/m² | - |
| 1778118202 | 9.44° C | 99% | 1011.9 hPa | 1.78 mm | - | 0 W/m² | - |
| 1778117898 | 9.44° C | 99% | 1011.5 hPa | 1.78 mm | - | 0 W/m² | - |
| 1778117596 | 9.44° C | 99% | 1011.7 hPa | 0 mm | - | 0 W/m² | - |
| 1778117293 | 9.44° C | 99% | 1011.5 hPa | 0 mm | - | 0 W/m² | - |
| 1778116989 | 9.44° C | 99% | 1011.7 hPa | 0 mm | - | 0 W/m² | - |
| 1778116686 | 9.44° C | 99% | 1011.5 hPa | 0 mm | - | 0 W/m² | - |
| 1778116383 | 9.44° C | 99% | 1011.9 hPa | 0 mm | - | 0 W/m² | - |
| 1778116082 | 10° C | 99% | 1011.5 hPa | 0 mm | - | 0 W/m² | - |
| 1778115779 | 10° C | 99% | 1011.7 hPa | 1.27 mm | - | 0 W/m² | - |
| 1778115476 | 9.44° C | 99% | 1011.3 hPa | 1.27 mm | - | 0 W/m² | - |
* Rain latest hour (hover to see other rain measurements)
** Current wind speed in m/s (hover to see current wind gust speed)